Погода в Часовенной

Россия / Республика Марий Эл     55°55′30″N   48°21′35″E
темп.,
°C
ветер,
м/с
пор.,
м/с
влажн.,
%
обл.,
%
осадки,
мм/ч
давл.,
гПа
погр.,
м
18 апреля, вс
вс1800:00+3св37841 0.0 1024125
03:00+2св24860 0.0 102464
06:00+3св24784 0.0 1023109
09:00+10св35534 0.0 1023632
12:00+13св56425 0.0 10221660
15:00+13всв664164 0.0 10232012
18:00+8всв7106615 0.0 1025877
21:00+5всв5116373 0.0 1026693
19 апреля, пн
пн1900:00+3всв5125992 0.0 1027512
03:00+2всв61364100 0.0 1028587
06:00+1всв61359100 0.0 1029646
09:00+4в81142100 0.0 10301118
12:00+7в8103298 0.0 10301565
15:00+8в7103094 0.0 10291664
18:00+6в6103681 0.0 1030886
21:00+3в5134467 0.0 1031506
20 апреля, вт
вт2000:00+1в513493 0.0 1031425
03:000в511561 0.0 1032320
06:00+1в511550 0.0 1032388
09:00+6вюв69360 0.0 10321069
12:00+8вюв79300 0.0 10321396
15:00+9вюв79290 0.0 10301382
18:00+7вюв510370 0.0 1029425
21:00+3вюв4125029 0.0 1029295
21 апреля, ср
ср2100:00+3вюв5145099 0.0 1027433
03:00+3вюв71651100 0.0 1026538
06:00+3юв81750100 0.0 1025750
09:00+5юв91744100 0.0 1024891
12:00+5юв91649100 0.2 10231060
15:00+3юв91875100 1.6 1022968
18:00+3ююв91782100 1.4 1022945
21:00+2ююв81697100 4.3 1022808
22 апреля, чт
чт2200:00+3ююв71495100 0.6 1021718
03:00+3ю61294100 1.1 1022543
06:00+4ю4995100 0.0 1023393
09:00+5ю4892100 0.1 1024365
12:00+8ю5676100 0.0 1025609
15:00+11ю566041 0.1 10251334
18:00+9ююв59755 0.1 1025412
21:00+5ююв411916 0.1 1026293